Time,TemperatureF,DewpointF,PressureIn,WindDirection,WindDirectionDegrees,WindSpeedMPH,WindSpeedGustMPH,Humidity,HourlyPrecipIn,Conditions,Clouds,dailyrainin,SolarRadiationWatts/m^2,SoftwareType,DateUTC
2013-01-01 00:00:00,62.0,58.1,30.01,SSE,167,0.0,0.0,87,0.00,CLR,SCT,0.00,0.0,WeatherDisplay:10.37,2013-01-01 10:00:00,
2013-01-01 00:10:00,61.8,58.2,30.01,SSE,167,0.0,1.0,88,0.00,CLR,SCT,0.00,0.0,WeatherDisplay:10.37,2013-01-01 10:10:00,
2013-01-01 00:20:00,61.8,58.5,30.01,SSE,167,0.0,2.0,89,0.00,CLR,SCT,0.00,0.0,WeatherDisplay:10.37,2013-01-01 10:20:00,
2013-01-01 00:30:00,61.8,58.2,30.01,SSE,167,1.0,2.0,88,0.00,CLR,SCT,0.00,0.0,WeatherDisplay:10.37,2013-01-01 10:30:00,
2013-01-01 00:40:00,61.8,58.2,30.01,SSE,167,0.0,3.0,88,0.00,CLR,SCT,0.00,0.0,WeatherDisplay:10.37,2013-01-01 10:40:00,
2013-01-01 00:50:00,61.7,58.4,30.01,SSE,167,0.0,1.0,89,0.00,CLR,SCT,0.00,0.0,WeatherDisplay:10.37,2013-01-01 10:50:00,
2013-01-01 01:00:00,61.5,58.2,30.01,SSE,167,0.0,1.0,89,0.00,CLR,SCT,0.00,0.0,WeatherDisplay:10.37,2013-01-01 11:00:00,
2013-01-01 01:10:00,61.3,58.0,30.01,SSE,156,0.0,3.0,89,0.00,CLR,SCT,0.00,0.0,WeatherDisplay:10.37,2013-01-01 11:10:00,
2013-01-01 01:20:00,61.2,58.2,30.00,SE,141,0.0,3.0,90,0.00,CLR,SCT,0.00,0.0,WeatherDisplay:10.37,2013-01-01 11:20:00,
2013-01-01 01:30:00,61.4,58.8,30.00,East,85,2.0,5.0,91,0.00,CLR,SCT,0.00,0.0,WeatherDisplay:10.37,2013-01-01 11:30:00,
2013-01-01 01:40:00,62.5,59.2,30.00,ENE,74,2.0,8.0,89,0.00,CLR,SCT,0.00,0.0,WeatherDisplay:10.37,2013-01-01 11:40:00,
2013-01-01 01:50:00,63.1,59.5,29.99,ENE,75,3.0,8.0,88,0.00,CLR,SCT,0.00,0.0,WeatherDisplay:10.37,2013-01-01 11:50:00,
2013-01-01 02:00:00,63.4,59.5,29.99,ENE,75,3.0,8.0,87,0.00,CLR,SCT,0.00,0.0,WeatherDisplay:10.37,2013-01-01 12:00:00,
2013-01-01 02:10:00,63.6,59.3,29.98,ENE,66,2.0,7.0,86,0.00,CLR,SCT,0.00,0.0,WeatherDisplay:10.37,2013-01-01 12:10:00,
2013-01-01 02:20:00,63.8,59.2,29.98,ENE,68,3.0,8.0,85,0.00,CLR,SCT,0.00,0.0,WeatherDisplay:10.37,2013-01-01 12:20:00,
2013-01-01 02:30:00,64.1,59.2,29.98,ESE,102,3.0,6.0,84,0.00,CLR,SCT,0.00,0.0,WeatherDisplay:10.37,2013-01-01 12:30:00,
2013-01-01 02:40:00,63.9,59.0,29.97,ESE,115,1.0,3.0,84,0.00,CLR,SCT,0.00,0.0,WeatherDisplay:10.37,2013-01-01 12:40:00,
2013-01-01 02:50:00,63.5,58.6,29.97,ESE,115,1.0,5.0,84,0.00,CLR,SCT,0.00,0.0,WeatherDisplay:10.37,2013-01-01 12:50:00,
2013-01-01 03:00:00,63.2,58.6,29.97,ESE,112,1.0,3.0,85,0.00,CLR,SCT,0.00,0.0,WeatherDisplay:10.37,2013-01-01 13:00:00,
2013-01-01 03:10:00,63.0,58.4,29.98,East,101,3.0,5.0,85,0.00,CLR,SCT,0.00,0.0,WeatherDisplay:10.37,2013-01-01 13:10:00,
2013-01-01 03:20:00,62.9,58.6,29.99,East,83,1.0,7.0,86,0.00,CLR,SCT,0.00,0.0,WeatherDisplay:10.37,2013-01-01 13:20:00,
2013-01-01 03:30:00,62.8,58.9,29.99,East,81,1.0,7.0,87,0.00,CLR,SCT,0.00,0.0,WeatherDisplay:10.37,2013-01-01 13:30:00,
2013-01-01 03:40:00,62.5,58.6,29.99,East,81,0.0,3.0,87,0.00,CLR,SCT,0.00,0.0,WeatherDisplay:10.37,2013-01-01 13:40:00,
2013-01-01 03:50:00,62.3,59.0,29.99,ENE,73,2.0,5.0,89,0.00,CLR,SCT,0.00,0.0,WeatherDisplay:10.37,2013-01-01 13:50:00,
2013-01-01 04:00:00,62.7,59.4,29.99,ENE,71,2.0,5.0,89,0.00,CLR,SCT,0.00,0.0,WeatherDisplay:10.37,2013-01-01 14:00:00,
2013-01-01 04:10:00,63.1,58.8,29.99,East,95,5.0,7.0,86,0.00,CLR,SCT,0.00,0.0,WeatherDisplay:10.37,2013-01-01 14:10:00,
2013-01-01 04:20:00,63.8,59.2,29.99,East,89,3.0,9.0,85,0.00,CLR,SCT,0.00,0.0,WeatherDisplay:10.37,2013-01-01 14:20:00,
2013-01-01 04:30:00,64.5,58.9,29.99,East,97,5.0,9.0,82,0.00,CLR,SCT,0.00,0.0,WeatherDisplay:10.37,2013-01-01 14:30:00,
2013-01-01 04:40:00,65.1,58.8,29.99,East,99,6.0,9.0,80,0.00,CLR,SCT,0.00,0.0,WeatherDisplay:10.37,2013-01-01 14:40:00,
2013-01-01 04:50:00,65.8,58.7,29.99,East,89,5.0,9.0,78,0.00,CLR,SCT,0.00,0.0,WeatherDisplay:10.37,2013-01-01 14:50:00,
2013-01-01 05:00:00,66.0,58.9,29.99,East,85,2.0,8.0,78,0.00,CLR,SCT,0.00,0.0,WeatherDisplay:10.37,2013-01-01 15:00:00,
2013-01-01 05:10:00,66.0,58.6,30.00,East,79,2.0,7.0,77,0.00,CLR,SCT,0.00,0.0,WeatherDisplay:10.37,2013-01-01 15:10:00,
2013-01-01 05:20:00,65.9,58.8,30.00,East,87,1.0,4.0,78,0.00,CLR,SCT,0.00,0.0,WeatherDisplay:10.37,2013-01-01 15:20:00,
2013-01-01 05:30:00,65.4,58.7,30.01,ENE,69,2.0,5.0,79,0.00,CLR,SCT,0.00,0.0,WeatherDisplay:10.37,2013-01-01 15:30:00,
2013-01-01 05:40:00,64.9,58.5,30.01,ENE,63,2.0,4.0,80,0.00,CLR,SCT,0.00,0.0,WeatherDisplay:10.37,2013-01-01 15:40:00,
2013-01-01 05:50:00,64.4,58.4,30.01,ENE,64,1.0,5.0,81,0.00,CLR,SCT,0.00,0.0,WeatherDisplay:10.37,2013-01-01 15:50:00,
2013-01-01 06:00:00,64.6,58.6,30.01,ENE,73,1.0,7.0,81,0.00,CLR,SCT,0.00,0.0,WeatherDisplay:10.37,2013-01-01 16:00:00,
2013-01-01 06:10:00,64.5,58.5,30.01,ENE,73,2.0,4.0,81,0.00,CLR,SCT,0.00,0.0,WeatherDisplay:10.37,2013-01-01 16:10:00,
2013-01-01 06:20:00,64.5,58.5,30.01,East,83,1.0,5.0,81,0.00,CLR,SCT,0.00,0.0,WeatherDisplay:10.37,2013-01-01 16:20:00,
2013-01-01 06:30:00,64.6,58.6,30.01,East,81,3.0,5.0,81,0.00,CLR,SCT,0.00,0.0,WeatherDisplay:10.37,2013-01-01 16:30:00,
2013-01-01 06:40:00,64.5,58.5,30.01,East,86,3.0,7.0,81,0.00,CLR,SCT,0.00,0.0,WeatherDisplay:10.37,2013-01-01 16:40:00,
2013-01-01 06:50:00,65.0,58.7,30.01,East,79,5.0,9.0,80,0.00,CLR,SCT,0.00,0.0,WeatherDisplay:10.37,2013-01-01 16:50:00,
2013-01-01 07:00:00,65.7,58.7,30.01,ENE,77,5.0,9.0,78,0.00,CLR,SCT,0.00,0.0,WeatherDisplay:10.37,2013-01-01 17:00:00,
2013-01-01 07:10:00,66.2,59.1,30.01,ENE,72,3.0,9.0,78,0.00,CLR,SCT,0.00,4.2,WeatherDisplay:10.37,2013-01-01 17:10:00,
2013-01-01 07:20:00,66.1,59.1,30.01,ENE,65,5.0,8.0,78,0.00,CLR,SCT,0.00,8.3,WeatherDisplay:10.37,2013-01-01 17:20:00,
2013-01-01 07:30:00,65.8,59.1,30.01,NE,55,5.0,8.0,79,0.00,CLR,SCT,0.00,13.3,WeatherDisplay:10.37,2013-01-01 17:30:00,
2013-01-01 07:40:00,65.6,59.3,30.01,ENE,60,3.0,10.0,80,0.00,CLR,SCT,0.00,16.2,WeatherDisplay:10.37,2013-01-01 17:40:00,
2013-01-01 07:50:00,66.1,59.7,30.02,NE,51,5.0,15.0,80,0.00,CLR,SCT,0.00,23.3,WeatherDisplay:10.37,2013-01-01 17:50:00,
2013-01-01 08:00:00,66.4,59.7,30.03,ENE,65,3.0,12.0,79,0.00,CLR,SCT,0.00,28.3,WeatherDisplay:10.37,2013-01-01 18:00:00,
2013-01-01 08:10:00,66.4,59.7,30.03,ENE,67,6.0,10.0,79,0.00,CLR,SCT,0.00,105.8,WeatherDisplay:10.37,2013-01-01 18:10:00,
2013-01-01 08:20:00,66.8,60.0,30.03,ENE,69,6.0,12.0,79,0.00,FEW,SCT,0.00,149.5,WeatherDisplay:10.37,2013-01-01 18:20:00,
2013-01-01 08:30:00,67.1,60.4,30.03,ENE,77,5.0,11.0,79,0.00,FEW,SCT,0.00,175.8,WeatherDisplay:10.37,2013-01-01 18:30:00,
2013-01-01 08:40:00,67.7,60.2,30.04,East,84,6.0,12.0,77,0.00,FEW,SCT,0.00,158.7,WeatherDisplay:10.37,2013-01-01 18:40:00,
2013-01-01 08:50:00,68.9,61.0,30.04,East,81,5.0,13.0,76,0.00,FEW,SCT,0.00,227.8,WeatherDisplay:10.37,2013-01-01 18:50:00,
2013-01-01 09:00:00,69.9,61.2,30.04,ENE,77,5.0,12.0,74,0.00,FEW,SCT,0.00,274.5,WeatherDisplay:10.37,2013-01-01 19:00:00,
2013-01-01 09:10:00,70.3,62.0,30.04,ENE,63,5.0,10.0,75,0.00,FEW,SCT,0.00,266.6,WeatherDisplay:10.37,2013-01-01 19:10:00,
2013-01-01 09:20:00,71.2,62.1,30.04,NE,51,5.0,10.0,73,0.00,SCT,SCT,0.00,227.8,WeatherDisplay:10.37,2013-01-01 19:20:00,
2013-01-01 09:30:00,71.9,62.4,30.04,ENE,57,6.0,14.0,72,0.00,SCT,SCT,0.00,270.3,WeatherDisplay:10.37,2013-01-01 19:30:00,
2013-01-01 09:40:00,72.2,62.3,30.04,NE,46,7.0,15.0,71,0.00,SCT,SCT,0.00,282.8,WeatherDisplay:10.37,2013-01-01 19:40:00,
2013-01-01 09:50:00,72.7,62.8,30.05,NE,53,7.0,14.0,71,0.00,SCT,SCT,0.00,287.8,WeatherDisplay:10.37,2013-01-01 19:50:00,
2013-01-01 10:00:00,72.9,63.3,30.04,NE,53,5.0,16.0,72,0.00,SCT,SCT,0.00,294.9,WeatherDisplay:10.37,2013-01-01 20:00:00,
2013-01-01 10:10:00,73.6,63.2,30.04,NE,51,10.0,14.0,70,0.00,SCT,SCT,0.00,304.0,WeatherDisplay:10.37,2013-01-01 20:10:00,
2013-01-01 10:20:00,73.7,63.7,30.04,ENE,59,7.0,15.0,71,0.00,SCT,SCT,0.00,278.6,WeatherDisplay:10.37,2013-01-01 20:20:00,
2013-01-01 10:30:00,73.8,63.0,30.03,ENE,67,9.0,16.0,69,0.00,SCT,SCT,0.00,249.9,WeatherDisplay:10.37,2013-01-01 20:30:00,
2013-01-01 10:40:00,73.7,63.3,30.03,ENE,58,7.0,15.0,70,0.00,SCT,SCT,0.00,282.8,WeatherDisplay:10.37,2013-01-01 20:40:00,
2013-01-01 10:50:00,73.7,63.3,30.03,ENE,64,8.0,15.0,70,0.00,SCT,SCT,0.00,310.3,WeatherDisplay:10.37,2013-01-01 20:50:00,
2013-01-01 11:00:00,74.2,63.8,30.02,NE,55,9.0,20.0,70,0.00,SCT,SCT,0.00,287.8,WeatherDisplay:10.37,2013-01-01 21:00:00,
2013-01-01 11:10:00,74.3,63.5,30.02,ENE,63,9.0,20.0,69,0.00,SCT,SCT,0.00,310.3,WeatherDisplay:10.37,2013-01-01 21:10:00,
2013-01-01 11:20:00,74.5,63.7,30.01,ENE,58,10.0,20.0,69,0.00,SCT,SCT,0.00,323.2,WeatherDisplay:10.37,2013-01-01 21:20:00,
2013-01-01 11:30:00,74.7,64.7,30.01,NE,55,7.0,20.0,71,0.00,SCT,SCT,0.00,337.4,WeatherDisplay:10.37,2013-01-01 21:30:00,
2013-01-01 11:40:00,75.1,65.0,30.00,NE,42,9.0,17.0,71,0.00,SCT,SCT,0.00,340.7,WeatherDisplay:10.37,2013-01-01 21:40:00,
2013-01-01 11:50:00,74.1,64.5,29.99,ENE,59,9.0,18.0,72,0.00,SCT,SCT,0.00,301.1,WeatherDisplay:10.37,2013-01-01 21:50:00,
2013-01-01 12:00:00,74.0,64.8,29.99,NE,45,9.0,20.0,73,0.00,SCT,SCT,0.00,379.0,WeatherDisplay:10.37,2013-01-01 22:00:00,
2013-01-01 12:10:00,73.9,64.7,29.98,ENE,69,9.0,16.0,73,0.00,SCT,SCT,0.00,384.4,WeatherDisplay:10.37,2013-01-01 22:10:00,
2013-01-01 12:20:00,73.2,64.1,29.97,ENE,73,8.0,21.0,73,0.00,SCT,SCT,0.00,285.7,WeatherDisplay:10.37,2013-01-01 22:20:00,
2013-01-01 12:30:00,73.6,64.8,29.96,ENE,71,9.0,17.0,74,0.00,SCT,SCT,0.00,326.5,WeatherDisplay:10.37,2013-01-01 22:30:00,
2013-01-01 12:40:00,74.1,64.9,29.96,ENE,57,8.0,16.0,73,0.00,SCT,SCT,0.00,242.8,WeatherDisplay:10.37,2013-01-01 22:40:00,
2013-01-01 12:50:00,74.3,65.5,29.95,NE,47,9.0,17.0,74,0.00,SCT,SCT,0.00,208.3,WeatherDisplay:10.37,2013-01-01 22:50:00,
2013-01-01 13:00:00,74.1,65.3,29.95,ENE,61,9.0,16.0,74,0.00,SCT,SCT,0.00,299.9,WeatherDisplay:10.37,2013-01-01 23:00:00,
2013-01-01 13:10:00,74.4,66.3,29.94,ENE,57,9.0,18.0,76,0.00,SCT,SCT,0.00,302.8,WeatherDisplay:10.37,2013-01-01 23:10:00,
2013-01-01 13:20:00,74.8,66.7,29.94,NE,55,10.0,20.0,76,0.00,SCT,SCT,0.00,294.9,WeatherDisplay:10.37,2013-01-01 23:20:00,
2013-01-01 13:30:00,73.8,66.9,29.94,NE,56,10.0,21.0,79,0.00,SCT,SCT,0.00,353.6,WeatherDisplay:10.37,2013-01-01 23:30:00,
2013-01-01 13:40:00,72.8,67.0,29.93,ENE,57,8.0,15.0,82,0.00,SCT,SCT,0.00,174.9,WeatherDisplay:10.37,2013-01-01 23:40:00,
2013-01-01 13:50:00,71.9,66.1,29.93,ENE,64,10.0,17.0,82,0.00,SCT,SCT,0.00,263.2,WeatherDisplay:10.37,2013-01-01 23:50:00,
2013-01-01 14:00:00,72.2,65.7,29.93,ENE,62,10.0,18.0,80,0.00,SCT,SCT,0.00,290.7,WeatherDisplay:10.37,2013-01-02 00:00:00,
2013-01-01 14:10:00,73.1,66.2,29.92,NE,50,8.0,19.0,79,0.00,SCT,SCT,0.00,317.4,WeatherDisplay:10.37,2013-01-02 00:10:00,
2013-01-01 14:20:00,73.7,66.0,29.92,ENE,70,9.0,15.0,77,0.00,SCT,SCT,0.00,257.4,WeatherDisplay:10.37,2013-01-02 00:20:00,
2013-01-01 14:30:00,73.7,66.0,29.92,ENE,57,10.0,18.0,77,0.00,SCT,SCT,0.00,217.4,WeatherDisplay:10.37,2013-01-02 00:30:00,
2013-01-01 14:40:00,73.9,66.2,29.92,ENE,59,5.0,15.0,77,0.00,SCT,SCT,0.00,213.7,WeatherDisplay:10.37,2013-01-02 00:40:00,
2013-01-01 14:50:00,73.5,65.9,29.92,ENE,64,10.0,17.0,77,0.00,SCT,SCT,0.00,256.1,WeatherDisplay:10.37,2013-01-02 00:50:00,
2013-01-01 15:00:00,73.2,65.2,29.92,ENE,69,14.0,20.0,76,0.00,SCT,SCT,0.00,210.3,WeatherDisplay:10.37,2013-01-02 01:00:00,
2013-01-01 15:10:00,73.2,65.2,29.92,ENE,59,10.0,17.0,76,0.00,SCT,SCT,0.00,266.6,WeatherDisplay:10.37,2013-01-02 01:10:00,
2013-01-01 15:20:00,73.5,66.6,29.92,ENE,61,7.0,15.0,79,0.00,FEW,SCT,0.00,255.3,WeatherDisplay:10.37,2013-01-02 01:20:00,
2013-01-01 15:30:00,73.6,65.9,29.92,ENE,70,7.0,15.0,77,0.00,FEW,SCT,0.00,259.1,WeatherDisplay:10.37,2013-01-02 01:30:00,
2013-01-01 15:40:00,72.9,65.7,29.92,ENE,70,10.0,15.0,78,0.00,FEW,SCT,0.00,319.0,WeatherDisplay:10.37,2013-01-02 01:40:00,
2013-01-01 15:50:00,73.4,65.7,29.92,ENE,70,9.0,15.0,77,0.00,FEW,SCT,0.00,284.5,WeatherDisplay:10.37,2013-01-02 01:50:00,
2013-01-01 16:00:00,73.7,66.0,29.93,ENE,59,8.0,16.0,77,0.00,FEW,SCT,0.00,125.0,WeatherDisplay:10.37,2013-01-02 02:00:00,
2013-01-01 16:10:00,72.7,66.1,29.93,ENE,68,7.0,14.0,80,0.00,FEW,SCT,0.00,104.5,WeatherDisplay:10.37,2013-01-02 02:10:00,
2013-01-01 16:20:00,71.5,66.0,29.93,ENE,73,6.0,13.0,83,0.00,CLR,SCT,0.00,233.7,WeatherDisplay:10.37,2013-01-02 02:20:00,
2013-01-01 16:30:00,70.5,65.8,29.93,ENE,62,5.0,13.0,85,0.01,RA,SCT,0.01,297.8,WeatherDisplay:10.37,2013-01-02 02:30:00,
2013-01-01 16:40:00,70.5,66.1,29.93,NE,54,7.0,14.0,86,0.00,CLR,SCT,0.01,220.7,WeatherDisplay:10.37,2013-01-02 02:40:00,
2013-01-01 16:50:00,70.1,65.0,29.93,ENE,58,8.0,14.0,84,0.00,CLR,SCT,0.01,187.0,WeatherDisplay:10.37,2013-01-02 02:50:00,
2013-01-01 17:00:00,69.4,64.0,29.94,ENE,75,7.0,12.0,83,0.00,CLR,SCT,0.01,125.0,WeatherDisplay:10.37,2013-01-02 03:00:00,
2013-01-01 17:10:00,68.9,64.2,29.94,ENE,63,6.0,10.0,85,0.00,BKN,SCT,0.01,55.8,WeatherDisplay:10.37,2013-01-02 03:10:00,
2013-01-01 17:20:00,68.5,64.1,29.94,NE,56,6.0,14.0,86,0.00,BKN,SCT,0.01,92.5,WeatherDisplay:10.37,2013-01-02 03:20:00,
2013-01-01 17:30:00,68.1,63.8,29.95,ENE,67,7.0,15.0,86,0.00,BKN,SCT,0.01,112.9,WeatherDisplay:10.37,2013-01-02 03:30:00,
2013-01-01 17:40:00,67.7,63.4,29.95,ENE,69,6.0,15.0,86,0.00,BKN,SCT,0.01,13.3,WeatherDisplay:10.37,2013-01-02 03:40:00,
2013-01-01 17:50:00,67.0,63.0,29.95,ENE,64,9.0,16.0,87,0.00,BKN,SCT,0.01,7.1,WeatherDisplay:10.37,2013-01-02 03:50:00,
2013-01-01 18:00:00,66.6,62.6,29.96,ENE,68,6.0,14.0,87,0.00,BKN,SCT,0.01,0.0,WeatherDisplay:10.37,2013-01-02 04:00:00,
2013-01-01 18:10:00,66.4,62.4,29.96,ENE,66,7.0,9.0,87,0.00,BKN,SCT,0.01,0.0,WeatherDisplay:10.37,2013-01-02 04:10:00,
2013-01-01 18:20:00,66.2,62.2,29.96,ENE,66,6.0,12.0,87,0.00,BKN,SCT,0.01,0.0,WeatherDisplay:10.37,2013-01-02 04:20:00,
2013-01-01 18:30:00,66.0,62.3,29.96,ENE,61,7.0,12.0,88,0.00,BKN,SCT,0.01,0.0,WeatherDisplay:10.37,2013-01-02 04:30:00,
2013-01-01 18:40:00,65.8,62.5,29.96,ENE,65,3.0,10.0,89,0.00,BKN,SCT,0.01,0.0,WeatherDisplay:10.37,2013-01-02 04:40:00,
2013-01-01 18:50:00,65.6,62.6,29.97,ENE,65,5.0,12.0,90,0.00,BKN,SCT,0.01,0.0,WeatherDisplay:10.37,2013-01-02 04:50:00,
2013-01-01 19:00:00,65.5,62.5,29.97,ENE,61,6.0,15.0,90,0.00,BKN,SCT,0.01,0.0,WeatherDisplay:10.37,2013-01-02 05:00:00,
2013-01-01 19:10:00,65.3,62.6,29.98,ENE,57,8.0,15.0,91,0.00,OVC,SCT,0.01,0.0,WeatherDisplay:10.37,2013-01-02 05:10:00,
2013-01-01 19:20:00,65.4,63.0,29.98,NE,53,7.0,14.0,92,0.00,OVC,SCT,0.01,0.0,WeatherDisplay:10.37,2013-01-02 05:20:00,
2013-01-01 19:30:00,65.4,63.3,29.99,NE,55,7.0,18.0,93,0.00,OVC,SCT,0.01,0.0,WeatherDisplay:10.37,2013-01-02 05:30:00,
2013-01-01 19:40:00,65.5,63.4,29.99,NE,52,6.0,13.0,93,0.00,SCT,SCT,0.01,0.0,WeatherDisplay:10.37,2013-01-02 05:40:00,
2013-01-01 19:50:00,65.4,63.3,30.00,ENE,61,6.0,15.0,93,0.02,RA,SCT,0.03,0.0,WeatherDisplay:10.37,2013-01-02 05:50:00,
2013-01-01 20:00:00,65.4,63.6,30.00,NE,51,7.0,13.0,94,0.02,RA,SCT,0.05,0.0,WeatherDisplay:10.37,2013-01-02 06:00:00,
2013-01-01 20:10:00,65.3,63.5,30.00,ENE,60,1.0,9.0,94,0.05,RA,SCT,0.10,0.0,WeatherDisplay:10.37,2013-01-02 06:10:00,
2013-01-01 20:20:00,65.3,63.8,30.00,ENE,74,2.0,10.0,95,0.08, +RA,SCT,0.18,0.0,WeatherDisplay:10.37,2013-01-02 06:20:00,
2013-01-01 20:30:00,65.4,63.9,30.00,ENE,58,6.0,15.0,95,0.05, +RA,SCT,0.23,0.0,WeatherDisplay:10.37,2013-01-02 06:30:00,
2013-01-01 20:40:00,65.2,63.7,30.00,ENE,60,5.0,16.0,95,0.01, +RA,SCT,0.24,0.0,WeatherDisplay:10.37,2013-01-02 06:40:00,
2013-01-01 20:50:00,65.0,63.5,30.00,NE,43,9.0,20.0,95,0.02, +RA,SCT,0.26,0.0,WeatherDisplay:10.37,2013-01-02 06:50:00,
2013-01-01 21:00:00,64.8,63.3,30.01,NE,55,9.0,22.0,95,0.02, +RA,SCT,0.28,0.0,WeatherDisplay:10.37,2013-01-02 07:00:00,
2013-01-01 21:10:00,64.7,63.2,30.01,NE,50,9.0,26.0,95,0.03,RA,SCT,0.31,0.0,WeatherDisplay:10.37,2013-01-02 07:10:00,
2013-01-01 21:20:00,64.5,63.4,30.01,NE,34,8.0,17.0,96,0.04,RA,SCT,0.35,0.0,WeatherDisplay:10.37,2013-01-02 07:20:00,
2013-01-01 21:30:00,64.5,63.3,30.01,NE,41,8.0,21.0,96,0.03,RA,SCT,0.38,0.0,WeatherDisplay:10.37,2013-01-02 07:30:00,
2013-01-01 21:40:00,64.5,63.3,30.01,NE,50,12.0,20.0,96,0.04,RA,SCT,0.42,0.0,WeatherDisplay:10.37,2013-01-02 07:40:00,
2013-01-01 21:50:00,64.6,63.4,30.01,ENE,59,9.0,17.0,96,0.05,RA,SCT,0.47,0.0,WeatherDisplay:10.37,2013-01-02 07:50:00,
2013-01-01 22:00:00,64.6,63.5,30.00,NE,46,9.0,18.0,96,0.05,RA,SCT,0.52,0.0,WeatherDisplay:10.37,2013-01-02 08:00:00,
2013-01-01 22:10:00,64.8,63.6,30.00,NE,51,8.0,17.0,96,0.02,RA,SCT,0.54,0.0,WeatherDisplay:10.37,2013-01-02 08:10:00,
2013-01-01 22:20:00,64.7,63.2,30.00,ENE,59,6.0,18.0,95,0.04,-RA,SCT,0.58,0.0,WeatherDisplay:10.37,2013-01-02 08:20:00,
2013-01-01 22:30:00,64.8,63.6,30.00,ENE,62,7.0,16.0,96,0.07,-RA,SCT,0.65,0.0,WeatherDisplay:10.37,2013-01-02 08:30:00,
2013-01-01 22:40:00,64.7,63.2,30.00,NE,48,8.0,13.0,95,0.05,-RA,SCT,0.70,0.0,WeatherDisplay:10.37,2013-01-02 08:40:00,
2013-01-01 22:50:00,64.7,63.6,30.00,ENE,58,7.0,20.0,96,0.03,-RA,SCT,0.73,0.0,WeatherDisplay:10.37,2013-01-02 08:50:00,
2013-01-01 23:00:00,64.8,63.6,30.00,NE,54,7.0,16.0,96,0.05,-RA,SCT,0.78,0.0,WeatherDisplay:10.37,2013-01-02 09:00:00,
2013-01-01 23:10:00,64.9,63.7,30.00,NE,46,8.0,17.0,96,0.06,-RA,SCT,0.85,0.0,WeatherDisplay:10.37,2013-01-02 09:10:00,
2013-01-01 23:20:00,64.8,63.4,30.00,NE,51,8.0,23.0,95,0.08,-RA,SCT,0.92,0.0,WeatherDisplay:10.37,2013-01-02 09:20:00,
2013-01-01 23:30:00,64.8,63.3,29.99,NE,51,7.0,22.0,95,0.10,-RA,SCT,1.02,0.0,WeatherDisplay:10.37,2013-01-02 09:30:00,
2013-01-01 23:40:00,64.8,63.6,29.98,ENE,57,9.0,17.0,96,0.04,-RA,SCT,1.06,0.0,WeatherDisplay:10.37,2013-01-02 09:40:00,
2013-01-01 23:50:00,64.9,63.7,29.99,NE,50,8.0,20.0,96,0.06,-RA,SCT,1.12,0.0,WeatherDisplay:10.37,2013-01-02 09:50:00,